Regional Weather Roundup
Issued by NWS

Home | Current Version | Previous Version | Text Only | Print | Product List | Glossary On
Versions: 1 2 3 4 5 6 7 8 9 10 11 12 13 14 15 16 17 18 19 20 21 22 23 24 25 26 27 28 29 30 31 32 33 34 35 36 37 38 39 40 41 42 43 44 45 46 47 48 49 50
000
ASHW40 PHFO 270843
RWRHI

WEATHER ROUNDUP FOR HAWAII
NATIONAL WEATHER SERVICE HONOLULU HI
1000 PM HST FRI AUG 26 2016

THIS IS AN AUTOMATED REPORT THAT HAS NOT BEEN QUALITY CONTROLLED.

NOTE..."FAIR" INDICATES FEW OR NO CLOUDS BELOW 12,000 FEET WITH NO
SIGNIFICANT WEATHER AND/OR OBSTRUCTIONS TO VISIBILITY.

* - THESE SITES REPORT LIMITED FIELDS

HIZ001>004-270900-
KAUAI-NIIHAU-

CITY           SKY/WX    TMP DP  RH WIND       PRES   REMARKS
LIHUE APT      MOCLDY    79  67  66 NE18      30.07R
PORT ALLEN*      N/A     77 N/A N/A E8          N/A
POIPU*           N/A     79 N/A N/A NE8G16      N/A
PRINCEVILLE*     N/A     73 N/A N/A S3          N/A
KOKOLE POINT*    N/A     79 N/A N/A MISG        N/A
MOLOAA DAIRY*    N/A     75  68  78 E3          N/A
WAIMEA HTS*      N/A     75  61  60 N2          N/A
PUU OPAE*        N/A     66  57  72 NE3         N/A
PUU LUA*       NOT AVBL
MAKAHA RIDGE*    N/A     70  59  68 E2G8        N/A
$$

HIZ005>011-270900-
OAHU-

CITY           SKY/WX    TMP DP  RH WIND       PRES   REMARKS
HONOLULU       PTCLDY    78  66  66 E6        30.03R
KALAELOA       CLEAR     76  66  71 NE7       30.04R
KANEOHE MCB    MOCLDY    78  68  71 E8G21     30.01S
WHEELER FIELD  FAIR      73  68  84 N7        30.06R
BELLOWS*         N/A    N/A N/A N/A NE17G23     N/A
KAHUKU*          N/A    N/A N/A N/A VRB1        N/A
WHEELER*         N/A    N/A N/A N/A N3          N/A
WAIANAE HARBOR NOT AVBL
DILLINGHAM*      N/A     90  82  79 MISG        N/A  HX 111
KAHUKU TRN*      N/A     75  68  78 W6G13       N/A
KAWAILOA*        N/A     72  66  83 NE9G17      N/A
KII*             N/A     79  70  73 NE12G18     N/A
MAKUA RANGE*     N/A     84  75  74 NW10G17     N/A  HX  92
OAHU FOREST NW   N/A     70 N/A N/A E18         N/A
SCHOFIELD BRK*   N/A     72  66  83 MISG        N/A
SCHOFIELD S*   NOT AVBL
WAIANAE VLY*     N/A     75  64  69 VRB9        N/A
KUAOKALA*        N/A     73  66  78 NE20G28     N/A
HONOULIUULI*   NOT AVBL
MOKUOLOE IS*   NOT AVBL
PALEHUA*         N/A     66  63  88 NE14G24     N/A
WAIAWA PHB*    NOT AVBL
$$

HIZ012>013-270900-
MOLOKAI-

CITY           SKY/WX    TMP DP  RH WIND       PRES   REMARKS
MOLOKAI AIRPT  PTCLDY    77  65  66 NE9       30.04R
KALAUPAPA      NOT AVBL
MAKAPULAPAI*     N/A     73  68  83 SE7G22      N/A
MOLOKAI 1*     NOT AVBL
PUU ALII*        N/A     59  59 100 N1G7        N/A
$$

HIZ016-270900-
KAHOOLAWE-

CITY           SKY/WX    TMP DP  RH WIND       PRES   REMARKS
KAHOOLAWE*       N/A     70 N/A N/A NE1         N/A
HAKIOAWA*        N/A     72  67  83 MISG      30.45S
HONOKANAIA*      N/A     79  67  65 NE10G18   29.96R
KANELOA*         N/A     73  68  83 E12G24    30.08R
KEALIALALO*    NOT AVBL
LUA MAKIKA*    NOT AVBL
$$

HIZ014>015-270900-
LANAI-

CITY           SKY/WX    TMP DP  RH WIND       PRES   REMARKS
LANAI CITY     MOCLDY    72  66  81 NE20G26   30.07S
LANAI 1*       NOT AVBL
$$

HIZ017>028-270900-
MAUI-

CITY           SKY/WX    TMP DP  RH WIND       PRES   REMARKS
KAHULUI        PTCLDY    78  67  68 N7        30.04R
KAPALUA-W MAUI NOT AVBL
HANA AIRPORT     N/A     73  72  94 SW2       30.06F
HANA*            N/A     73 N/A N/A S2          N/A
HALEAKALA SUMM   N/A     48  16  27 NE9G22      N/A
MAALAEA BAY*     N/A     77 N/A N/A N16G22      N/A
HALEAKALA*     NOT AVBL
KAUPO GAP*       N/A     64  63  94 W1G8        N/A
KULA 1*          N/A     50  49  96 E3          N/A
$$

HIZ023>026-270900-
BIG ISLAND OF HAWAII COAST AND LOWER SLOPES-

CITY           SKY/WX    TMP DP  RH WIND       PRES   REMARKS
KAILUA KONA    MOCLDY    81  72  74 CALM      29.98R
HILO           CLEAR     74  68  81 SW5       30.03R
HONOKAA*         N/A     66 N/A N/A VRB1        N/A
KAWAIHAE MWT*    N/A     82 N/A N/A SE5         N/A
KAWAIHAE*        N/A     81 N/A N/A E3        29.98S
SOUTH POINT*     N/A     73 N/A N/A VRB9        N/A
UPOLU AIRPORT* NOT AVBL
KAMUELA*       SUNNY     64  61  88 NE15      30.12F
HAKALAU*         N/A     50  49  97 CALM        N/A
KALOKO-HONOKO*   N/A     77  72  83 NE3G13    29.98R
PALI 2*          N/A     66  61  82 SE8G21      N/A
KEALAKOMO*       N/A     79  64  61 N24G33      N/A
KAUPULEHU*       N/A     72  61  68 E3          N/A
KAPAPALA*        N/A     69  65  86 NW2G9       N/A
LOWER KAHUKU*    N/A     61  59  94 N1          N/A
PUHE CS*         N/A    N/A N/A N/A E3G10       N/A
PUHO CS*         N/A     75  71  86 E2          N/A
PTA KEAMUKU*     N/A     59  50  72 CALM        N/A
WAIKOLOA*        N/A     72  61  68 E13G20      N/A
$$

HIZ027>028-270900-
BIG ISLAND OF HAWAII INTERIOR AND SUMMMITS-

CITY           SKY/WX    TMP DP  RH WIND       PRES   REMARKS
BRADSHAW FIELD CLOUDY    57  51  79 NW3       30.35R
MK VISITOR CEN   N/A     48  32  53 N6          N/A
MAUNA KEA*       N/A     37   1  22 S9          N/A
MAUNA LOA*       N/A    N/A N/A N/A MISG        N/A
MAUNA LOA 1*   NOT AVBL
PTA KIPUKA*      N/A     70  68  94 E1          N/A
PTA RANGE 17*    N/A     72  66  83 SE3         N/A
PTA WEST*        N/A     61  55  82 S7          N/A
NENE CABIN*      N/A     54  54 100 S1          N/A
AHUMOA*          N/A     52  43  72 E6          N/A
PTA PORTABLE*  NOT AVBL
PUU MALI*        N/A     54  50  87 E7          N/A
$$

HIC003-270900-
NORTHWEST ISLANDS-

CITY           SKY/WX    TMP DP  RH WIND       PRES   REMARKS
MIDWAY ISLAND  PTCLDY    75  72  88 NE13      30.09R
MIDWAY NOS*      N/A     79 N/A N/A MISG      30.07S
FRENCH FRIGATE NOT AVBL
$$

PHZ110>124-180-270900-
BUOY REPORTS

STATION/POSITION TIME  TEMP    WIND        PRES    WAVE   SWELL
                       AIR SEA DIR/SP/G            HT/PER HT/DIR
                 (UTC) (F)     (DEG/KT/KT) (MB)    (FT/S) (FT/D)
BUOY 51001       NOT AVBL
BUOY 51101       0750   80 81   80/ 14/ 16 1018.7R   4/13   3/140
BUOY 51100       NOT AVBL
BUOY 51002       NOT AVBL
BUOY 51003       0750   82 83   70/ 12/ 16 1015.9R   5/ 8   5/120
BUOY 51004       0750   81 82   40/ 12/ 14 1014.9R   6/ 8   5/ 90
BARBERS PT BUOY  NOT AVBL
WAIMEA BAY BUOY  0804      81                N/A     3/ 6
KAILUA BAY BUOY  0811      81                N/A     5/ 6   2/150
LANAI BUOY       0815      82                N/A     3/13   2/200
BARBERS PT 2     NOT AVBL
PAUWELA MAUI     0809      80                N/A     5/ 7
HILO             0812      81                N/A     5/ 8   2/130
KANEOHE BAY BUOY 0806      80                N/A     5/ 7
HANALEI KAUAI    NOT AVBL
KAHULUI HARBOR   0800   78 82  320/  4/  5 1017.1R
HONOLULU HARBOR  0800   79 82   90/  3/  7 1017.4R
KILO NALU        NOT AVBL
HILO HARBOR      0800   76 80  280/  5/  6 1016.4R
MOKUOLOE         0700   79 83   70/  6/  9 1017.1R
NAWILIWILI       0800   78 81   50/  9/ 14 1017.8R
WHOTS BUOY       NOT AVBL
BUOY 51028       NOT AVBL
$$

......................KEY........................................
  SKY/WX - SKY CONDITIONS/PRESENT WEATHER
  TMP    - TEMPERATURE IN FAHRENHEIT
  DWPT   - DEWPOINT IN FAHRENHEIT
  RH     - RELATIVE HUMIDITY IN PERCENT
  WIND   - DIRECTION AND SPEED /MPH FOR ISLANDS...KTS FOR BUOYS/
  PRES   - MEAN SEA LEVEL PRESSURE IN INCHES OF HG
  VSB    - VISIBILITY IN MILES
  HX     - HEAT INDEX
  WCI    - WIND CHILL INDEX
  VRB    - VARIABLE WIND DIRECTION
  N/A    - NOT AVAILABLE



USA.gov is the U.S. government's official web portal to all federal, state and local government web resources and services.